DW4047 Weather Reports


Display with metric or nautical units.
time (UTC)temp
F
wind
direction
speed
MPH
gust
MPH
rain 1hr
in
rain 24hr
in
rain mn
in
humidity
%
barometer
mb
20260504185438 73 226 2.0 8.0 0.00 0.00 0.00 43 981.5
20260504184934 73 220 2.0 8.0 0.00 0.00 0.00 41 981.6
20260504183930 72 184 2.0 10.0 0.00 0.00 0.00 42 982.0
20260504182929 72 148 2.0 8.0 0.00 0.00 0.00 41 981.9
20260504182430 73 200 2.0 10.0 0.00 0.00 0.00 40 982.0
20260504181930 72 246 3.0 10.0 0.00 0.00 0.00 41 982.1
20260504181429 72 151 2.0 8.0 0.00 0.00 0.00 41 982.2
20260504180930 72 211 2.0 8.0 0.00 0.00 0.00 42 982.3
20260504180430 71 188 2.0 11.0 0.00 0.00 0.00 40 982.3
20260504175932 71 140 5.0 11.0 0.00 0.00 0.00 40 982.5
20260504175429 72 245 4.0 10.0 0.00 0.00 0.00 41 982.4
20260504174930 72 177 3.0 7.0 0.00 0.00 0.00 39 982.3
20260504174429 73 184 3.0 7.0 0.00 0.00 0.00 40 982.5
20260504173930 73 130 2.0 5.0 0.00 0.00 0.00 43 982.5
20260504173429 73 204 2.0 6.0 0.00 0.00 0.00 43 982.4
20260504172929 72 246 2.0 6.0 0.00 0.00 0.00 42 982.6
20260504172431 72 312 2.0 6.0 0.00 0.00 0.00 41 982.6
20260504170930 71 204 2.0 7.0 0.00 0.00 0.00 41 982.8
20260504170431 71 27 2.0 9.0 0.00 0.00 0.00 42 982.7
20260504160430 70 184 4.0 7.0 0.00 0.00 0.00 42 983.4
20260504150426 67 134 2.0 8.0 0.00 0.00 0.00 43 983.9
20260504140902 64 149 2.0 5.0 0.00 0.00 0.00 44 983.9
20260504140402 64 221 2.0 4.0 0.00 0.00 0.00 47 983.8
20260504130402 58 209 2.0 4.0 0.00 0.00 0.00 52 984.3
20260504110328 48 238 1.0 5.0 0.00 0.00 0.00 55 984.5
20260504100304 48 169 1.0 5.0 0.00 0.00 0.00 57 984.3
20260504081802 46 239 0.0 0.0 0.00 0.00 0.00 57 984.7
20260504081302 46 239 0.0 0.0 0.00 0.00 0.00 57 984.7
20260504080807 45 239 0.0 0.0 0.00 0.00 0.00 57 984.7
20260504080300 45 239 0.0 0.0 0.00 0.00 0.00 57 984.8
20260504070303 45 294 0.0 0.0 0.00 0.00 0.00 57 984.7
20260504050731 45 294 0.0 0.0 0.00 0.00 0.00 58 985.5
20260504045219 46 294 0.0 0.0 0.00 0.00 0.00 57 985.5
20260504044710 46 294 0.0 0.0 0.00 0.00 0.00 58 985.5
20260504043707 46 294 0.0 0.0 0.00 0.00 0.00 55 985.4
20260504043205 46 294 0.0 0.0 0.00 0.00 0.00 56 985.5
20260504042705 46 294 0.0 0.0 0.00 0.00 0.00 57 985.4
20260504042204 47 294 0.0 0.0 0.00 0.00 0.00 58 985.5
20260504041706 47 294 0.0 0.0 0.00 0.00 0.00 56 985.4
20260504041200 47 294 0.0 0.0 0.00 0.00 0.00 54 985.3
20260504040201 46 294 0.0 0.0 0.00 0.00 0.00 54 985.2
20260504035201 46 294 0.0 0.0 0.00 0.00 0.00 54 985.2
20260504034702 46 294 0.0 0.0 0.00 0.00 0.00 54 985.1
20260504034202 46 294 0.0 0.0 0.00 0.00 0.00 54 985.0
20260504033707 46 294 0.0 0.0 0.00 0.00 0.00 56 985.1
20260504033202 46 294 0.0 0.0 0.00 0.00 0.00 56 985.0
20260504032706 46 294 0.0 0.0 0.00 0.00 0.00 56 985.0
20260504032204 46 294 0.0 0.0 0.00 0.00 0.00 55 984.9
20260504031703 46 294 0.0 0.0 0.00 0.00 0.00 54 985.1
20260504031204 46 294 0.0 0.0 0.00 0.00 0.00 55 985.1
20260504030203 46 294 0.0 0.0 0.00 0.00 0.00 55 984.9
20260504025706 46 294 0.0 0.0 0.00 0.00 0.00 55 984.9
20260504025202 46 294 0.0 0.0 0.00 0.00 0.00 55 984.9
20260504024705 47 294 0.0 0.0 0.00 0.00 0.00 55 985.0
20260504023703 47 294 0.0 0.0 0.00 0.00 0.00 54 985.0
20260504023203 47 294 0.0 0.0 0.00 0.00 0.00 55 985.0
20260504022706 47 294 0.0 0.0 0.00 0.00 0.00 55 984.9
20260504022204 47 294 0.0 0.0 0.00 0.00 0.00 55 984.9
20260504021703 47 294 0.0 0.0 0.00 0.00 0.00 54 984.9
20260504021202 48 294 0.0 0.0 0.00 0.00 0.00 55 984.9
20260504020703 48 294 0.0 0.0 0.00 0.00 0.00 56 984.9
20260504020209 48 294 0.0 0.0 0.00 0.00 0.00 55 984.9
20260504015703 48 294 0.0 0.0 0.00 0.00 0.00 54 984.9
20260504015204 48 294 0.0 0.0 0.00 0.00 0.00 53 984.8
20260504014704 48 294 0.0 0.0 0.00 0.00 0.00 53 984.8
20260504013703 48 294 0.0 0.0 0.00 0.00 0.00 54 984.9
20260504013203 49 294 0.0 0.0 0.00 0.00 0.00 54 984.9
20260504012702 49 294 0.0 0.0 0.00 0.00 0.00 53 984.9
20260504011652 50 294 0.0 0.0 0.00 0.00 0.00 49 984.6
20260504011142 51 294 0.0 0.0 0.00 0.00 0.00 50 984.7
20260504010642 51 294 0.0 0.0 0.00 0.00 0.00 50 984.7
20260504010135 51 294 0.0 0.0 0.00 0.00 0.00 50 984.6
20260504005632 51 294 0.0 0.0 0.00 0.00 0.00 50 984.6
20260504004129 53 294 0.0 0.0 0.00 0.00 0.00 47 984.5
20260504003629 53 294 0.0 0.0 0.00 0.00 0.00 46 984.4
20260504003132 53 294 0.0 0.0 0.00 0.00 0.00 46 984.4
20260504002628 53 294 0.0 0.0 0.00 0.00 0.00 46 984.3
20260504002132 53 294 0.0 0.0 0.00 0.00 0.00 45 984.3
20260504001631 54 294 0.0 0.0 0.00 0.00 0.00 45 984.3
20260504001133 54 294 0.0 0.0 0.00 0.00 0.00 45 984.3
20260504000630 54 294 0.0 0.0 0.00 0.00 0.00 45 984.3
20260504000131 55 294 0.0 0.0 0.00 0.00 0.00 44 984.3
20260503235130 56 294 0.0 0.0 0.00 0.00 0.00 42 984.2
20260503234629 56 294 0.0 0.0 0.00 0.00 0.00 41 984.2
20260503234131 56 294 0.0 0.0 0.00 0.00 0.00 41 984.1
20260503233632 57 294 0.0 0.0 0.00 0.00 0.00 40 984.1
20260503232629 57 294 0.0 3.0 0.00 0.00 0.00 40 984.1
20260503232129 57 298 1.0 2.0 0.00 0.00 0.00 40 984.0
20260503230619 58 347 1.0 7.0 0.00 0.00 0.00 39 983.8
20260503230116 58 330 2.0 7.0 0.00 0.00 0.00 39 983.9
20260503225611 58 339 2.0 5.0 0.00 0.00 0.00 38 983.8
20260503225103 58 307 1.0 5.0 0.00 0.00 0.00 39 983.9
20260503224602 58 269 1.0 3.0 0.00 0.00 0.00 39 983.9
20260503224103 58 315 1.0 4.0 0.00 0.00 0.00 39 984.0
20260503223558 59 321 1.0 4.0 0.00 0.00 0.00 38 984.0
20260503222548 59 328 2.0 6.0 0.00 0.00 0.00 37 984.0
20260503222041 59 340 1.0 6.0 0.00 0.00 0.00 39 984.0
20260503221541 59 344 2.0 9.0 0.00 0.00 0.00 36 984.0
20260503221037 60 336 1.0 9.0 0.00 0.00 0.00 36 984.1
20260503220539 60 313 2.0 5.0 0.00 0.00 0.00 36 984.0
20260503220040 60 275 1.0 4.0 0.00 0.00 0.00 36 984.1
20260503215534 60 113 2.0 4.0 0.00 0.00 0.00 36 984.0
20260503215032 60 69 1.0 3.0 0.00 0.00 0.00 36 984.1
20260503213029 60 46 2.0 5.0 0.00 0.00 0.00 37 984.1
20260503212531 60 304 1.0 4.0 0.00 0.00 0.00 36 984.0
20260503212031 60 338 0.0 4.0 0.00 0.00 0.00 37 984.0
20260503211530 60 338 1.0 5.0 0.00 0.00 0.00 35 984.1
20260503211028 61 322 1.0 6.0 0.00 0.00 0.00 34 983.9
20260503210527 62 297 2.0 6.0 0.00 0.00 0.00 35 984.0
20260503210028 62 300 1.0 3.0 0.00 0.00 0.00 35 984.0
20260503205523 62 333 1.0 5.0 0.00 0.00 0.00 35 983.9
20260503205026 62 321 2.0 10.0 0.00 0.00 0.00 35 984.0
20260503204518 62 302 2.0 10.0 0.00 0.00 0.00 34 984.0
20260503204024 62 342 1.0 3.0 0.00 0.00 0.00 36 983.9
20260503203521 62 5 1.0 3.0 0.00 0.00 0.00 35 983.9
20260503203019 62 294 2.0 10.0 0.00 0.00 0.00 35 983.9
20260503202507 63 300 2.0 10.0 0.00 0.00 0.00 35 984.0
20260503202005 63 262 2.0 13.0 0.00 0.00 0.00 35 984.0
20260503201503 63 324 2.0 13.0 0.00 0.00 0.00 37 984.1
20260503200502 63 93 5.0 10.0 0.00 0.00 0.00 33 984.2
20260503200000 63 265 2.0 10.0 0.00 0.00 0.00 35 984.1
20260503195502 63 9 1.0 11.0 0.00 0.00 0.00 34 984.2
20260503195001 64 259 2.0 11.0 0.00 0.00 0.00 35 984.2
20260503194501 64 289 1.0 8.0 0.00 0.00 0.00 39 984.5
20260503194002 64 321 2.0 8.0 0.00 0.00 0.00 35 984.3
20260503193502 64 286 1.0 4.0 0.00 0.00 0.00 36 984.5
20260503192502 62 315 2.0 10.0 0.00 0.00 0.00 36 984.7
20260503192003 62 349 3.0 10.0 0.00 0.00 0.00 36 984.8
20260503191501 62 5 2.0 6.0 0.00 0.00 0.00 41 984.7
20260503190500 61 182 1.0 8.0 0.00 0.00 0.00 41 984.6
20260503190000 61 161 2.0 8.0 0.00 0.00 0.00 39 984.7